Time,TemperatureF,DewpointF,PressureIn,WindDirection,WindDirectionDegrees,WindSpeedMPH,WindSpeedGustMPH,Humidity,HourlyPrecipIn,Conditions,Clouds,dailyrainin,SoftwareType,DateUTC
2013-07-05 00:01:00,69.0,68.0,30.16,NE,37,0.0,-999.0,96,-99.99,,,-99.99,,2013-07-05 04:01:00,
2013-07-05 00:11:00,69.0,68.0,30.17,NE,42,0.0,-999.0,96,-99.99,,,-99.99,,2013-07-05 04:11:00,
2013-07-05 00:22:00,69.0,68.0,30.17,NE,42,0.0,-999.0,96,-99.99,,,-99.99,,2013-07-05 04:22:00,
2013-07-05 00:33:00,69.0,68.0,30.17,NE,42,0.0,-999.0,96,-99.99,,,-99.99,,2013-07-05 04:33:00,
2013-07-05 00:43:00,69.0,68.0,30.18,NE,42,0.0,-999.0,96,-99.99,,,-99.99,,2013-07-05 04:43:00,
2013-07-05 00:53:00,69.0,68.0,30.18,NE,42,0.0,-999.0,96,-99.99,,,-99.99,,2013-07-05 04:53:00,
2013-07-05 01:01:00,69.0,68.0,30.17,NE,42,0.0,-999.0,96,-99.99,,,-99.99,,2013-07-05 05:01:00,
2013-07-05 01:12:00,69.0,68.0,30.17,NE,42,0.0,-999.0,96,-99.99,,,-99.99,,2013-07-05 05:12:00,
2013-07-05 01:22:00,69.0,68.0,30.17,NE,42,0.0,-999.0,96,-99.99,,,-99.99,,2013-07-05 05:22:00,
2013-07-05 01:33:00,69.0,68.0,30.17,NE,42,0.0,-999.0,96,-99.99,,,-99.99,,2013-07-05 05:33:00,
2013-07-05 01:43:00,69.0,68.0,30.17,NE,42,0.0,-999.0,96,-99.99,,,-99.99,,2013-07-05 05:43:00,
2013-07-05 01:52:00,69.0,68.0,30.17,NE,42,0.0,-999.0,96,-99.99,,,-99.99,,2013-07-05 05:52:00,
2013-07-05 02:02:00,69.0,68.0,30.17,NE,42,0.0,-999.0,96,-99.99,,,-99.99,,2013-07-05 06:02:00,
2013-07-05 02:13:00,69.0,68.0,30.16,NE,42,0.0,-999.0,96,-99.99,,,-99.99,,2013-07-05 06:13:00,
2013-07-05 02:23:00,69.0,68.0,30.16,NE,42,0.0,-999.0,96,-99.99,,,-99.99,,2013-07-05 06:23:00,
2013-07-05 02:34:00,69.0,68.0,30.16,NE,42,0.0,-999.0,96,-99.99,,,-99.99,,2013-07-05 06:34:00,
2013-07-05 02:44:00,69.0,68.0,30.16,NE,42,0.0,-999.0,96,-99.99,,,-99.99,,2013-07-05 06:44:00,
2013-07-05 02:53:00,69.0,68.0,30.16,NE,42,0.0,-999.0,97,-99.99,,,-99.99,,2013-07-05 06:53:00,
2013-07-05 03:02:00,69.0,68.0,30.16,NE,42,0.0,-999.0,97,-99.99,,,-99.99,,2013-07-05 07:02:00,
2013-07-05 03:12:00,69.0,68.0,30.15,NE,42,0.0,-999.0,97,-99.99,,,-99.99,,2013-07-05 07:12:00,
2013-07-05 03:23:00,69.0,68.0,30.15,NE,42,0.0,-999.0,97,-99.99,,,-99.99,,2013-07-05 07:23:00,
2013-07-05 03:34:00,69.0,68.0,30.15,NE,42,0.0,-999.0,97,-99.99,,,-99.99,,2013-07-05 07:34:00,
2013-07-05 03:43:00,69.0,68.0,30.15,NE,43,0.0,-999.0,97,-99.99,,,-99.99,,2013-07-05 07:43:00,
2013-07-05 03:53:00,69.0,68.0,30.15,NE,42,0.0,-999.0,96,-99.99,,,-99.99,,2013-07-05 07:53:00,
2013-07-05 04:03:00,69.0,68.0,30.15,NE,42,0.0,-999.0,96,-99.99,,,-99.99,,2013-07-05 08:03:00,
2013-07-05 04:12:00,69.0,68.0,30.15,East,101,0.0,-999.0,96,-99.99,,,-99.99,,2013-07-05 08:12:00,
2013-07-05 04:23:00,69.0,68.0,30.15,East,101,0.0,-999.0,96,-99.99,,,-99.99,,2013-07-05 08:23:00,
2013-07-05 04:33:00,69.0,68.0,30.15,East,101,0.0,-999.0,96,-99.99,,,-99.99,,2013-07-05 08:33:00,
2013-07-05 04:44:00,69.0,68.0,30.15,East,101,0.0,-999.0,96,-99.99,,,-99.99,,2013-07-05 08:44:00,
2013-07-05 04:55:00,69.0,68.0,30.15,East,101,0.0,-999.0,96,-99.99,,,-99.99,,2013-07-05 08:55:00,
2013-07-05 05:08:00,69.0,68.0,30.15,East,101,0.0,-999.0,96,-99.99,,,-99.99,,2013-07-05 09:08:00,
2013-07-05 05:16:00,69.0,68.0,30.14,East,101,0.0,-999.0,96,-99.99,,,-99.99,,2013-07-05 09:16:00,
2013-07-05 05:26:00,68.0,67.0,30.14,East,101,0.0,-999.0,96,-99.99,,,-99.99,,2013-07-05 09:26:00,
2013-07-05 05:37:00,68.0,67.0,30.14,East,101,0.0,-999.0,96,-99.99,,,-99.99,,2013-07-05 09:37:00,
2013-07-05 05:48:00,68.0,67.0,30.14,East,101,0.0,-999.0,96,-99.99,,,-99.99,,2013-07-05 09:48:00,
2013-07-05 05:54:00,68.0,67.0,30.14,East,101,0.0,-999.0,96,-99.99,,,-99.99,,2013-07-05 09:54:00,
2013-07-05 06:07:00,68.0,67.0,30.14,East,101,0.0,-999.0,96,-99.99,,,-99.99,,2013-07-05 10:07:00,
2013-07-05 06:19:00,68.0,67.0,30.16,East,101,0.0,-999.0,96,-99.99,,,-99.99,,2013-07-05 10:19:00,
2013-07-05 06:26:00,68.0,67.0,30.15,East,101,0.0,-999.0,96,-99.99,,,-99.99,,2013-07-05 10:26:00,
2013-07-05 06:47:00,68.0,67.0,30.16,East,101,0.0,-999.0,96,-99.99,,,-99.99,,2013-07-05 10:47:00,
2013-07-05 06:55:00,68.0,67.0,30.16,East,101,0.0,-999.0,97,-99.99,,,-99.99,,2013-07-05 10:55:00,
2013-07-05 07:09:00,68.0,67.0,30.16,East,101,0.0,-999.0,97,-99.99,,,-99.99,,2013-07-05 11:09:00,
2013-07-05 07:18:00,69.0,68.0,30.17,East,101,0.0,-999.0,97,-99.99,,,-99.99,,2013-07-05 11:18:00,
2013-07-05 07:25:00,69.0,68.0,30.17,East,101,0.0,-999.0,97,-99.99,,,-99.99,,2013-07-05 11:25:00,
2013-07-05 07:37:00,69.0,68.0,30.17,East,101,0.0,-999.0,97,-99.99,,,-99.99,,2013-07-05 11:37:00,
2013-07-05 07:47:00,69.0,68.0,30.18,East,101,0.0,-999.0,97,-99.99,,,-99.99,,2013-07-05 11:47:00,
2013-07-05 07:57:00,70.0,69.0,30.18,East,101,0.0,-999.0,97,-99.99,,,-99.99,,2013-07-05 11:57:00,
2013-07-05 08:16:00,70.0,69.0,30.19,ESE,105,0.0,-999.0,97,-99.99,,,-99.99,,2013-07-05 12:16:00,
2013-07-05 08:37:00,70.0,69.0,30.18,ESE,111,0.0,-999.0,96,-99.99,,,-99.99,,2013-07-05 12:37:00,
2013-07-05 08:48:00,71.0,70.0,30.19,ESE,109,0.0,-999.0,96,-99.99,,,-99.99,,2013-07-05 12:48:00,
2013-07-05 09:06:00,71.0,70.0,30.19,SW,223,0.0,-999.0,96,-99.99,,,-99.99,,2013-07-05 13:06:00,
2013-07-05 09:13:00,71.0,69.0,30.20,WSW,243,0.0,-999.0,95,-99.99,,,-99.99,,2013-07-05 13:13:00,
2013-07-05 09:48:00,71.0,69.0,30.20,SSE,163,0.0,-999.0,95,-99.99,,,-99.99,,2013-07-05 13:48:00,
2013-07-05 09:55:00,71.0,69.0,30.20,SSE,163,0.0,-999.0,95,-99.99,,,-99.99,,2013-07-05 13:55:00,
2013-07-05 10:07:00,72.0,70.0,30.20,SSE,163,0.0,-999.0,94,-99.99,,,-99.99,,2013-07-05 14:07:00,
2013-07-05 10:27:00,73.0,71.0,30.20,SSE,163,0.0,-999.0,93,-99.99,,,-99.99,,2013-07-05 14:27:00,
2013-07-05 10:46:00,74.0,71.0,30.19,ESE,112,0.0,-999.0,89,-99.99,,,-99.99,,2013-07-05 14:46:00,
2013-07-05 10:55:00,74.0,71.0,30.19,ESE,112,0.0,-999.0,89,-99.99,,,-99.99,,2013-07-05 14:55:00,
2013-07-05 11:07:00,75.0,71.0,30.20,ESE,113,0.0,-999.0,88,-99.99,,,-99.99,,2013-07-05 15:07:00,
2013-07-05 11:16:00,74.0,70.0,30.21,SE,138,0.0,-999.0,87,-99.99,,,-99.99,,2013-07-05 15:16:00,
2013-07-05 11:24:00,74.0,70.0,30.21,SE,138,0.0,-999.0,87,-99.99,,,-99.99,,2013-07-05 15:24:00,
2013-07-05 11:53:00,76.0,71.0,30.21,SSE,167,0.0,-999.0,85,-99.99,,,-99.99,,2013-07-05 15:53:00,
2013-07-05 12:02:00,76.0,70.0,30.20,SE,146,0.0,-999.0,82,-99.99,,,-99.99,,2013-07-05 16:02:00,
2013-07-05 12:22:00,77.0,70.0,30.20,South,187,0.0,-999.0,79,-99.99,,,-99.99,,2013-07-05 16:22:00,
2013-07-05 12:33:00,77.0,70.0,30.20,WNW,289,0.0,-999.0,80,-99.99,,,-99.99,,2013-07-05 16:33:00,
2013-07-05 12:53:00,78.0,69.0,30.20,South,176,1.0,-999.0,73,-99.99,,,-99.99,,2013-07-05 16:53:00,
2013-07-05 13:02:00,79.0,69.0,30.20,South,176,0.0,-999.0,71,-99.99,,,-99.99,,2013-07-05 17:02:00,
2013-07-05 13:12:00,79.0,69.0,30.20,South,176,0.0,-999.0,71,-99.99,,,-99.99,,2013-07-05 17:12:00,
2013-07-05 13:22:00,79.0,69.0,30.19,SSW,201,1.0,-999.0,71,-99.99,,,-99.99,,2013-07-05 17:22:00,
2013-07-05 13:43:00,80.0,70.0,30.19,NW,309,0.0,-999.0,71,-99.99,,,-99.99,,2013-07-05 17:43:00,
2013-07-05 13:53:00,80.0,69.0,30.18,NNW,335,1.0,-999.0,70,-99.99,,,-99.99,,2013-07-05 17:53:00,
2013-07-05 14:02:00,81.0,69.0,30.17,SE,129,0.0,-999.0,68,-99.99,,,-99.99,,2013-07-05 18:02:00,
2013-07-05 14:11:00,81.0,69.0,30.17,SE,129,0.0,-999.0,68,-99.99,,,-99.99,,2013-07-05 18:11:00,
2013-07-05 14:22:00,82.0,70.0,30.17,ESE,120,1.0,-999.0,67,-99.99,,,-99.99,,2013-07-05 18:22:00,
2013-07-05 14:33:00,83.0,70.0,30.17,WSW,237,1.0,-999.0,66,-99.99,,,-99.99,,2013-07-05 18:33:00,
2013-07-05 14:43:00,83.0,71.0,30.16,NW,312,2.0,-999.0,67,-99.99,,,-99.99,,2013-07-05 18:43:00,
2013-07-05 14:53:00,83.0,71.0,30.16,NW,312,2.0,-999.0,67,-99.99,,,-99.99,,2013-07-05 18:53:00,
2013-07-05 15:01:00,83.0,71.0,30.16,South,173,1.0,-999.0,67,-99.99,,,-99.99,,2013-07-05 19:01:00,
2013-07-05 15:22:00,83.0,71.0,30.15,NW,316,0.0,-999.0,67,-99.99,,,-99.99,,2013-07-05 19:22:00,
2013-07-05 15:34:00,82.0,69.0,30.15,WNW,298,0.0,-999.0,66,-99.99,,,-99.99,,2013-07-05 19:34:00,
2013-07-05 15:53:00,84.0,71.0,30.14,NNW,346,2.0,-999.0,65,-99.99,,,-99.99,,2013-07-05 19:53:00,
2013-07-05 16:22:00,85.0,70.0,30.12,SSE,160,2.0,-999.0,61,-99.99,,,-99.99,,2013-07-05 20:22:00,
2013-07-05 16:33:00,85.0,69.0,30.13,SSE,153,1.0,-999.0,59,-99.99,,,-99.99,,2013-07-05 20:33:00,
2013-07-05 16:43:00,85.0,70.0,30.13,ESE,121,0.0,-999.0,61,-99.99,,,-99.99,,2013-07-05 20:43:00,
2013-07-05 16:53:00,85.0,70.0,30.13,ESE,121,0.0,-999.0,61,-99.99,,,-99.99,,2013-07-05 20:53:00,
2013-07-05 17:43:00,71.0,69.0,30.16,ENE,71,0.0,-999.0,93,-99.99,,,-99.99,,2013-07-05 21:43:00,
2013-07-05 17:53:00,71.0,69.0,30.16,ENE,71,0.0,-999.0,93,-99.99,,,-99.99,,2013-07-05 21:53:00,
2013-07-05 18:02:00,70.0,68.0,30.15,ENE,78,0.0,-999.0,94,-99.99,,,-99.99,,2013-07-05 22:02:00,
2013-07-05 18:11:00,71.0,69.0,30.15,ENE,78,0.0,-999.0,94,-99.99,,,-99.99,,2013-07-05 22:11:00,
2013-07-05 18:22:00,71.0,69.0,30.15,ENE,78,0.0,-999.0,94,-99.99,,,-99.99,,2013-07-05 22:22:00,
2013-07-05 18:34:00,71.0,69.0,30.15,ENE,78,0.0,-999.0,94,-99.99,,,-99.99,,2013-07-05 22:34:00,
2013-07-05 18:43:00,72.0,70.0,30.15,ENE,78,0.0,-999.0,94,-99.99,,,-99.99,,2013-07-05 22:43:00,
2013-07-05 18:53:00,72.0,70.0,30.15,ENE,78,0.0,-999.0,94,-99.99,,,-99.99,,2013-07-05 22:53:00,
2013-07-05 19:02:00,72.0,70.0,30.15,ENE,78,0.0,-999.0,94,-99.99,,,-99.99,,2013-07-05 23:02:00,
2013-07-05 19:11:00,73.0,71.0,30.15,ENE,72,0.0,-999.0,93,-99.99,,,-99.99,,2013-07-05 23:11:00,
2013-07-05 19:23:00,73.0,71.0,30.15,ENE,72,0.0,-999.0,93,-99.99,,,-99.99,,2013-07-05 23:23:00,
2013-07-05 19:32:00,73.0,71.0,30.16,ENE,70,0.0,-999.0,93,-99.99,,,-99.99,,2013-07-05 23:32:00,
2013-07-05 19:43:00,73.0,71.0,30.16,North,11,0.0,-999.0,93,-99.99,,,-99.99,,2013-07-05 23:43:00,
2013-07-05 19:53:00,73.0,71.0,30.16,North,11,0.0,-999.0,93,-99.99,,,-99.99,,2013-07-05 23:53:00,
2013-07-05 20:02:00,73.0,71.0,30.16,North,11,0.0,-999.0,93,-99.99,,,-99.99,,2013-07-06 00:02:00,
2013-07-05 20:12:00,73.0,71.0,30.16,North,11,0.0,-999.0,93,-99.99,,,-99.99,,2013-07-06 00:12:00,
2013-07-05 20:22:00,73.0,71.0,30.16,North,11,0.0,-999.0,93,-99.99,,,-99.99,,2013-07-06 00:22:00,
2013-07-05 20:33:00,73.0,71.0,30.16,NNE,20,0.0,-999.0,93,-99.99,,,-99.99,,2013-07-06 00:33:00,
2013-07-05 20:42:00,72.0,70.0,30.16,North,5,0.0,-999.0,93,-99.99,,,-99.99,,2013-07-06 00:42:00,
2013-07-05 20:53:00,72.0,70.0,30.16,North,5,0.0,-999.0,93,-99.99,,,-99.99,,2013-07-06 00:53:00,
2013-07-05 21:02:00,72.0,70.0,30.16,North,5,0.0,-999.0,93,-99.99,,,-99.99,,2013-07-06 01:02:00,
2013-07-05 21:12:00,72.0,70.0,30.16,NNE,27,0.0,-999.0,93,-99.99,,,-99.99,,2013-07-06 01:12:00,
2013-07-05 21:22:00,72.0,70.0,30.16,NNE,27,0.0,-999.0,93,-99.99,,,-99.99,,2013-07-06 01:22:00,
2013-07-05 21:43:00,72.0,70.0,30.17,NNE,27,0.0,-999.0,94,-99.99,,,-99.99,,2013-07-06 01:43:00,
2013-07-05 21:53:00,72.0,70.0,30.17,NNE,27,0.0,-999.0,94,-99.99,,,-99.99,,2013-07-06 01:53:00,
2013-07-05 22:02:00,72.0,70.0,30.16,NNE,27,0.0,-999.0,94,-99.99,,,-99.99,,2013-07-06 02:02:00,
2013-07-05 22:22:00,72.0,70.0,30.16,NNE,26,0.0,-999.0,94,-99.99,,,-99.99,,2013-07-06 02:22:00,
2013-07-05 22:34:00,72.0,70.0,30.17,NNE,27,0.0,-999.0,94,-99.99,,,-99.99,,2013-07-06 02:34:00,
2013-07-05 22:43:00,72.0,70.0,30.17,East,79,0.0,-999.0,95,-99.99,,,-99.99,,2013-07-06 02:43:00,
2013-07-05 22:53:00,72.0,70.0,30.17,East,79,0.0,-999.0,95,-99.99,,,-99.99,,2013-07-06 02:53:00,
2013-07-05 23:22:00,72.0,70.0,30.17,NE,46,0.0,-999.0,95,-99.99,,,-99.99,,2013-07-06 03:22:00,
2013-07-05 23:34:00,72.0,70.0,30.16,ENE,66,0.0,-999.0,95,-99.99,,,-99.99,,2013-07-06 03:34:00,
2013-07-05 23:52:00,72.0,71.0,30.16,ENE,67,0.0,-999.0,96,-99.99,,,-99.99,,2013-07-06 03:52:00,